Location: Ar Ranvel
(48.3000°N, 4.8833°W)
Time: 08:57:25
(UTC+00:00)

Meteor 1-4 Rocket - Pass Details

Date: 16 June 2021
Orbit: 447 x 499 km, 81.2° (Epoch: 26 July)

Event Time Altitude Azimuth Distance (km) Brightness Sun altitude
Rises 23:38:02 0° 357° (N) 2,498 7.9 -17.7°
Reaches altitude 10° 23:40:19 10° 9° (N) 1,609 6.3 -17.8°
Maximum altitude 23:43:26 29° 71° (ENE) 855 3.9 -17.8°
Enters shadow 23:44:30 24° 105° (ESE) 971 3.8 -17.9°
